Date String (YYYY-MM-DD hh:mm:ss) UTC,Instrument flags,Ambient pressure (hPa),Sample flow (lpm),Bypass flow (lpm),Sample temperature (°C),Ambient temperature (°C),ASC tube jacket temperature (°C),LED temperature (°C),Box temperature (°C),Sample RH (%),Span deviation,Mass concentration (μg/m³),Mass concentration (μg/m³),Mass concentration (μg/m³)
DateTimeUTC,F1_M11,P_M11,Q1_M11,Q2_M11,T1_M11,T2_M11,T3_M11,T4_M11,T5_M11,U1_M11,ZSPAN_M11,X0_M11,X2_M11,X1_M11
2022-05-28 03:00:00,,0821.7,4.99,0.00,29.2,28.0,00.0,38.1,31.1,11.2,0000.0,0009.22,0003.38,0002.05
2022-05-28 03:01:00,,0821.7,4.99,0.00,29.2,28.1,00.0,38.1,31.2,11.0,0000.0,0009.39,0003.40,0002.04
2022-05-28 03:02:00,,0821.6,5.01,0.00,29.3,28.2,00.0,38.1,31.2,12.2,0000.0,0008.98,0003.39,0002.03
2022-05-28 03:03:00,,0821.7,5.00,0.00,29.3,28.3,00.0,38.1,31.2,11.9,0000.0,0008.86,0003.39,0002.02
2022-05-28 03:04:00,,0821.7,5.00,0.00,29.3,28.4,00.0,38.1,31.3,12.9,0000.0,0008.99,0003.36,0002.00
2022-05-28 03:05:00,,0821.7,5.00,0.00,29.4,28.4,00.0,38.1,31.3,14.0,0000.0,0009.98,0003.32,0001.98
2022-05-28 03:06:00,,0821.7,5.00,0.00,29.4,28.5,00.0,38.2,31.3,14.6,0000.0,0010.39,0003.29,0001.97
2022-05-28 03:07:00,,0821.7,5.00,0.00,29.4,28.6,00.0,38.2,31.4,12.9,0000.0,0010.87,0003.29,0001.94
2022-05-28 03:08:00,,0821.7,4.99,0.00,29.4,28.3,00.0,38.2,31.3,13.2,0000.0,0010.31,0003.27,0001.93
2022-05-28 03:09:00,,0821.7,5.00,0.00,29.4,27.5,00.0,38.1,31.1,12.6,0000.0,0010.09,0003.25,0001.90
2022-05-28 03:10:00,,0821.7,4.98,0.00,29.3,27.1,00.0,38.1,31.0,12.8,0000.0,0010.45,0003.20,0001.91
2022-05-28 03:11:00,,0821.7,5.01,0.00,29.2,27.1,00.0,38.1,30.9,12.6,0000.0,0010.44,0003.17,0001.92
2022-05-28 03:12:00,,0821.7,4.98,0.00,29.2,27.2,00.0,38.1,30.9,13.0,0000.0,0010.32,0003.14,0001.94
2022-05-28 03:13:00,,0821.6,5.00,0.00,29.2,27.4,00.0,38.1,31.0,13.3,0000.0,0010.42,0003.13,0001.95
2022-05-28 03:14:00,,0821.6,5.01,0.00,29.2,27.5,00.0,38.1,31.0,13.5,0000.0,0011.44,0003.14,0001.96
2022-05-28 03:15:00,,0821.7,5.01,0.00,29.2,27.7,00.0,38.1,31.0,13.7,0000.0,0011.92,0003.11,0001.98
2022-05-28 03:16:00,,0821.7,4.99,0.00,29.2,27.8,00.0,38.1,31.1,13.9,0000.0,0011.00,0003.07,0001.98
2022-05-28 03:17:00,,0821.7,4.99,0.00,29.2,27.9,00.0,38.1,31.1,13.9,0000.0,0010.82,0003.11,0001.97
2022-05-28 03:18:00,,0821.7,5.00,0.00,29.2,28.0,00.0,38.1,31.1,13.8,0000.0,0010.45,0003.13,0001.97
2022-05-28 03:19:00,,0821.7,5.01,0.00,29.3,28.1,00.0,38.1,31.2,13.4,0000.0,0010.79,0003.14,0001.96
2022-05-28 03:20:00,,0821.7,4.99,0.00,29.3,28.2,00.0,38.1,31.2,13.4,0000.0,0010.57,0003.14,0001.98
2022-05-28 03:21:00,,0821.7,4.99,0.00,29.3,28.3,00.0,38.1,31.2,14.1,0000.0,0010.10,0003.16,0001.99
2022-05-28 03:22:00,,0821.8,4.99,0.00,29.3,28.4,00.0,38.1,31.3,13.5,0000.0,0009.89,0003.20,0001.98
2022-05-28 03:23:00,,0821.8,5.00,0.00,29.4,28.4,00.0,38.2,31.3,13.1,0000.0,0010.00,0003.19,0001.98
2022-05-28 03:24:00,,0821.8,5.01,0.00,29.4,28.5,00.0,38.2,31.3,13.1,0000.0,0010.05,0003.20,0001.98
2022-05-28 03:25:00,,0821.8,5.01,0.00,29.4,28.5,00.0,38.2,31.4,12.9,0000.0,0009.26,0003.17,0002.00
2022-05-28 03:26:00,,0821.8,4.98,0.00,29.5,28.4,00.0,38.2,31.3,12.7,0000.0,0008.46,0003.17,0001.99
2022-05-28 03:27:00,,0821.7,5.02,0.00,29.4,27.6,00.0,38.1,31.2,12.5,0000.0,0008.40,0003.22,0002.01
2022-05-28 03:28:00,,0821.7,5.00,0.00,29.3,27.1,00.0,38.1,31.0,12.7,0000.0,0009.10,0003.29,0002.03
2022-05-28 03:29:00,,0821.7,5.00,0.00,29.3,27.1,00.0,38.1,30.9,12.7,0000.0,0009.08,0003.27,0002.04
2022-05-28 03:30:00,,0821.7,5.01,0.00,29.2,27.2,00.0,38.1,30.9,12.6,0000.0,0008.85,0003.27,0002.05
2022-05-28 03:31:00,,0821.7,5.00,0.00,29.2,27.3,00.0,38.1,30.9,12.5,0000.0,0009.54,0003.27,0002.06
2022-05-28 03:32:00,,0821.7,5.00,0.00,29.2,27.5,00.0,38.1,31.0,12.5,0000.0,0009.85,0003.26,0002.06
2022-05-28 03:33:00,,0821.7,4.99,0.00,29.2,27.6,00.0,38.1,31.0,12.7,0000.0,0009.98,0003.26,0002.07
2022-05-28 03:34:00,,0821.7,5.01,0.00,29.2,27.7,00.0,38.1,31.0,12.5,0000.0,0009.77,0003.30,0002.09
2022-05-28 03:35:00,,0821.7,5.00,0.00,29.2,27.9,00.0,38.1,31.1,12.3,0000.0,0009.77,0003.32,0002.10
2022-05-28 03:36:00,,0821.8,5.01,0.00,29.2,28.0,00.0,38.1,31.1,12.4,0000.0,0009.88,0003.38,0002.12
2022-05-28 03:37:00,,0821.8,4.99,0.00,29.2,28.1,00.0,38.1,31.1,12.4,0000.0,0009.61,0003.40,0002.14
2022-05-28 03:38:00,,0821.8,5.01,0.00,29.3,28.2,00.0,38.1,31.2,12.6,0000.0,0009.65,0003.44,0002.17
2022-05-28 03:39:00,,0821.8,5.01,0.00,29.3,28.2,00.0,38.1,31.2,12.6,0000.0,0009.01,0003.42,0002.18
2022-05-28 03:40:00,,0821.9,4.99,0.00,29.3,28.3,00.0,38.1,31.2,11.9,0000.0,0009.20,0003.49,0002.22
2022-05-28 03:41:00,,0821.8,5.01,0.00,29.3,28.4,00.0,38.2,31.3,11.8,0000.0,0009.32,0003.55,0002.26
2022-05-28 03:42:00,,0821.8,4.99,0.00,29.4,28.4,00.0,38.2,31.3,12.1,0000.0,0008.47,0003.54,0002.27
2022-05-28 03:43:00,,0821.8,5.01,0.00,29.4,28.5,00.0,38.2,31.3,12.0,0000.0,0008.10,0003.55,0002.30
2022-05-28 03:44:00,,0821.8,5.01,0.00,29.4,28.5,00.0,38.2,31.4,11.8,0000.0,0007.97,0003.52,0002.32
2022-05-28 03:45:00,,0821.8,5.00,0.00,29.4,28.6,00.0,38.2,31.4,11.6,0000.0,0008.57,0003.51,0002.33
2022-05-28 03:46:00,,0821.8,5.01,0.00,29.5,28.5,00.0,38.2,31.4,11.5,0000.0,0008.84,0003.53,0002.34
2022-05-28 03:47:00,,0821.8,5.01,0.00,29.4,27.8,00.0,38.2,31.2,11.7,0000.0,0008.77,0003.53,0002.36
2022-05-28 03:48:00,,0821.8,4.99,0.00,29.3,27.2,00.0,38.1,31.0,11.7,0000.0,0008.85,0003.54,0002.36
2022-05-28 03:49:00,,0821.8,5.01,0.00,29.3,27.1,00.0,38.1,30.9,11.5,0000.0,0008.72,0003.51,0002.36
2022-05-28 03:50:00,,0821.8,5.01,0.00,29.2,27.1,00.0,38.1,30.9,11.2,0000.0,0008.61,0003.49,0002.39
2022-05-28 03:51:00,,0821.8,5.00,0.00,29.2,27.2,00.0,38.1,30.9,11.8,0000.0,0008.27,0003.45,0002.41
2022-05-28 03:52:00,,0821.8,5.00,0.00,29.2,27.4,00.0,38.1,30.9,11.8,0000.0,0009.03,0003.40,0002.40
2022-05-28 03:53:00,,0821.8,5.00,0.00,29.2,27.5,00.0,38.1,31.0,11.7,0000.0,0010.29,0003.38,0002.41
2022-05-28 03:54:00,,0821.8,5.00,0.00,29.2,27.7,00.0,38.1,31.0,11.9,0000.0,0010.44,0003.43,0002.43
2022-05-28 03:55:00,,0822.3,5.00,0.00,29.2,27.8,00.0,38.1,31.1,11.5,0000.0,0010.90,0003.49,0002.45
2022-05-28 03:56:00,,0821.9,5.01,0.00,29.2,27.9,00.0,38.1,31.1,11.6,0000.0,0011.07,0003.55,0002.46
2022-05-28 03:57:00,,0822.0,4.99,0.00,29.2,28.0,00.0,38.1,31.1,11.6,0000.0,0011.30,0003.57,0002.48
2022-05-28 03:58:00,,0822.1,5.00,0.00,29.2,28.1,00.0,38.1,31.1,11.7,0000.0,0011.65,0003.56,0002.51
2022-05-28 03:59:00,,0822.1,5.01,0.00,29.3,28.2,00.0,38.1,31.2,11.8,0000.0,0012.04,0003.56,0002.54
